Погода в Шамарах

Россия / Свердловская область     57°20′20″N   58°13′08″E
темп.,
°C
ветер,
м/с
пор.,
м/с
влажн.,
%
обл.,
%
осадки,
мм/ч
давл.,
гПа
погр.,
м
22 января, сб
сб2223:00−14ююз249881 0.1 102679
02:00−17ю119964 0.0 102717
05:00−18ю119847 0.0 102811
08:00−17ю219828 0.0 102815
11:00−13ю12915 0.0 102963
14:00−9ююз248773 0.0 1029269
17:00−13ю119744 0.0 10309
20:00−16юв119960 0.0 10329
23 января, вс
вс2323:00−17юв119873 0.0 10339
02:00−17юв119864 0.0 10339
05:00−16юв1198100 0.0 103412
08:00−15юв1198100 0.0 10359
11:00−10ююв1192100 0.0 103547
14:00−6ююз1386100 0.0 1035172
17:00−9ююв1197100 0.0 103710
20:00−12ююв1197100 0.0 103811
24 января, пн
пн2423:00−11ююв1197100 0.0 103812
02:00−11ю1197100 0.0 103911
05:00−9ююз1195100 0.0 103928
08:00−11ю1197100 0.0 103921
11:00−8ююз1391100 0.0 103996
14:00−6зюз2486100 0.0 1038272
17:00−7зюз1497100 0.3 1038237
20:00−7юз2696100 0.9 1037279
25 января, вт
вт2523:00−7зюз2796100 2.1 1036349
02:00−10зюз269891 0.3 1036120
05:00−12зюз269899 0.4 1036133
08:00−14зюз1299100 0.1 103546
11:00−13зюз1597100 0.1 1035141
14:00−9з2490100 0.0 1034322
17:00−10зюз2695100 0.0 1033244
20:00−11юз2698100 0.0 1033153
26 января, ср
ср2623:00−15юз21100100 0.0 103316
02:00−17ююз2198100 0.0 103316
05:00−18ююз219946 0.0 103215
08:00−18ююз1199100 0.0 103222
11:00−14юз13876 0.0 103284
14:00−9юз237898 0.0 1030236
17:00−13ююз119599 0.0 10319
20:00−16ю1197100 0.0 103212